www.pogodaiklimat.ru

ПОГОДА на Мысе Братьев

  • Прогноз погоды на Мысе Братьев
  • Монитор погоды на Мысе Братьев
  • Климат города

АРХИВ ПОГОДЫ на Мысе Братьев

Время (UTC), дата Ветер
(напр.,м/с)
 
Видим.   Явления Облачность Т
(С)
Тd
(С)
f
(%)
Тe
(С)
Тes
(С)
Комфортность P
(гПа)
Po
(гПа)
Тmin
(С)
Tmax
(С)
R
(мм)
S
(см)
03 11.01 СВ 13-21
{23}
20 км позёмок {метель} 10/10 600 м
[Cb cap]
-7.0 -11.6 70 -18 -18 1016.1 1014.4
06 11.01 СВ 14-20
{23}
20 км позёмок {метель} 10/10 600 м
[Cb cap]
-6.2 -9.0 81 -17 -17 1016.5 1014.8
09 11.01 СВ 16-23
{25}
20 км позёмок {метель} 10/10 600 м
[Cb cap]
-6.3 -9.2 80 -18 -18 1016.7 1015.0 -6.1
12 11.01 СВ 17-24
{26}
50 км позёмок {метель} 10/10 600 м
[Cb cap]
-5.6 -8.5 80 -17 -17 1017.6 1015.9
15 11.01 СВ 18-25
{28}
50 км слабый ливневой снег {метель} 10/10 600 м
[Cb cap]
-4.8 -6.9 85 -17 -17 1017.7 1016.0
18 11.01 СВ 19-26
{28}
20 км слабый ливневой снег {метель} 10/10 600 м
[Cb cap]
-4.0 -5.8 87 -16 -16 1017.3 1015.7
21 11.01 СВ 16-24
{28}
20 км позёмок {ливн. осадки} 10/10 600 м
[Cb cap]
-3.4 -4.8 90 -14 -14 1018.1 1016.4 -6.3 1 9
00 12.01 СВ 17-24
{26}
20 км слабый ливневой снег {метель} 10/10 600 м
[Cb cap]
-3.2 -4.6 90 -14 -14 1019.8 1018.2
03 12.01 СВ 17-26
{28}
20 км слабый ливневой снег 10/10 600 м
[Cb cap]
-3.2 -4.6 90 -14 -14 1020.1 1018.5
06 12.01 СВ 18-27
{27}
20 км осадки на расстоянии {ливн. осадки} 10/10 600 м
[Cb cap]
-3.6 -5.0 90 -15 -15 1020.2 1018.5
09 12.01 СВ 17-25
{30}
20 км осадки на расстоянии 10/10 600 м
[Cb cap]
-4.1 -5.6 89 -16 -16 1021.5 1019.9 -3.0 1
12 12.01 СВ 18-27
{27}
20 км осадки на расстоянии 10/10 600 м
[Cb cap]
-4.5 -6.5 86 -16 -16 1022.6 1020.9
15 12.01 СВ 16-24
{28}
20 км осадки на расстоянии 8/8 600 м
[Cb cap]
-5.8 -8.5 81 -17 -17 1023.3 1021.6
18 12.01 СВ 18-26
{26}
20 км осадки на расстоянии 8/8 600 м
[Cb cap]
-6.2 -9.1 80 -18 -18 1024.0 1022.3
21 12.01 СВ 17-25
{28}
20 км осадки на расстоянии 10/10 600 м
[Cb cap]
-6.3 -8.8 82 -18 -18 1024.8 1023.1 -6.3 9
00 13.01 СВ 19-27
{27}
20 км 10/10 600 м
[Cb cap]
-6.8 -9.9 79 -19 -19 1026.4 1024.7 -6.9
03 13.01 С 13-21
{27}
20 км 8/8 600 м
[Cb cap]
-6.9 -10.5 75 -18 -18 1028.0 1026.3
06 13.01 СВ 12-19
{26}
20 км 8/8 600 м
[Cb cap]
-7.3 -11.3 73 -18 -18 1028.8 1027.1
09 13.01 СВ 15-23
{25}
50 км 10/10 600 м
[Cb cap]
-7.9 -12.3 71 -20 -20 1028.6 1026.9 -6.3
12 13.01 СВ 11-19
{23}
50 км 8/8 600 м
[Cb cap]
-8.1 -11.4 77 -19 -19 1029.4 1027.7
15 13.01 С 10-17
{22}
50 км 10/10 600 м
[Cb cap]
-8.6 -12.5 73 -19 -19 1028.5 1026.8
18 13.01 СВ 11-18
{23}
50 км 10/10 600 м
[Cb cap]
-8.4 -13.2 68 -19 -19 1028.7 1027.0
21 13.01 СВ 12-20
{23}
50 км 8/5 600 м
[Cb cap Ac trans]
-8.8 -14.1 65 -20 -20 1028.9 1027.2 -8.9 9
00 14.01 СВ 11-17
{23}
50 км 5/3 1000 м
[Sc Ac trans]
-9.3 -14.0 69 -20 -20 1029.3 1027.6 -9.5
03 14.01 С 7-13
{23}
50 км 3/3 1000 м
[Sc]
-9.1 -15.4 60 -18 -18 1028.0 1026.3
06 14.01 СВ 6
{19}
50 км 3/3 1000 м
[Sc]
-9.0 -14.7 63 -17 -17 1028.4 1026.6
09 14.01 СВ 10-14
{18}
50 км 3/3 1000 м
[Sc]
-8.7 -12.2 76 -19 -19 1028.1 1026.4 -8.5
12 14.01 В 8-11
{15}
50 км ясно -10.2 -13.7 75 -20 -20 1027.9 1026.2
15 14.01 В 7
{11}
50 км ясно -10.8 -15.0 71 -20 -20 1026.8 1025.0
18 14.01 В 6
{10}
50 км ясно -10.0 -15.4 65 -18 -18 1026.4 1024.6
21 14.01 З 2 50 км ясно -12.9 -18.1 65 -18 -18 1026.2 1024.5 -13.9 9
00 15.01 С 1 50 км ясно -11.5 -19.6 51 -14 -13 1025.6 1023.9
03 15.01 З 1 50 км ясно -10.1 -16.2 61 -12 -12 1024.3 1022.5
06 15.01 С 2 50 км ясно -11.5 -17.3 62 -16 -16 1024.8 1023.0
09 15.01 В 3 50 км ясно -10.9 -15.8 67 -17 -17 1025.4 1023.7 -8.8
12 15.01 С 5 50 км ясно -11.6 -22.4 40 -20 -20 1025.4 1023.7
15 15.01 С 3 50 км ясно -12.7 -18.8 60 -19 -19 1025.2 1023.5
18 15.01 С 5 50 км ясно -12.1 -20.0 52 -20 -20 1025.6 1023.9
21 15.01 С 5 50 км ясно -11.7 -22.2 41 -20 -20 1025.9 1024.1 -12.7 9
00 16.01 СВ 4 50 км ясно -11.3 -21.2 44 -18 -18 1026.2 1024.5 -13.5
03 16.01 С 7
{10}
50 км 3/0
[Ac lent Ci fib]
-11.6 -22.6 40 -21 -21 1025.6 1023.8
06 16.01 С 7
{11}
50 км 3/0
[Ac lent Ci fib]
-12.4 -23.1 40 -22 -22 1025.1 1023.4
09 16.01 С 10-14
{14}
50 км 4/3 1000 м
[Sc Ac lent]
-13.7 -23.1 45 -25 -25 1025.2 1023.5 -10.5
12 16.01 С 8-13
{15}
50 км 3/3 1000 м
[Sc]
-14.7 -22.9 50 -26 -26 1025.7 1024.0
15 16.01 С 7
{13}
50 км 3/3 1000 м
[Sc]
-14.5 -22.9 49 -25 -25 1025.2 1023.5
18 16.01 С 7
{10}
50 км ясно -15.3 -23.0 52 -26 -26 1025.0 1023.3
21 16.01 С 8-10
{11}
50 км ясно -13.9 -22.4 49 -24 -24 1024.9 1023.2 -15.9 7
00 17.01 С 7
{12}
50 км ясно -13.1 -20.8 52 -23 -23 1025.4 1023.7
03 17.01 С 5
{13}
50 км ясно -11.6 -19.4 52 -20 -19 1024.6 1022.8
06 17.01 С 5 50 км ясно -14.0 -20.7 57 -23 -23 1025.3 1023.6
09 17.01 С 6 50 км ясно -13.9 -21.7 52 -23 -23 1024.8 1023.1 -10.8
12 17.01 С 5 50 км ясно -16.0 -22.7 56 -25 -25 1025.0 1023.2
15 17.01 С 3 50 км ясно -16.5 -23.8 53 -23 -23 1024.2 1022.5
18 17.01 СЗ 3 50 км ясно -16.1 -23.8 51 -23 -23 1023.7 1022.0
21 17.01 СЗ 2 50 км ясно -16.5 -23.1 57 -22 -22 1023.3 1021.5 -18.4 7
00 18.01 З 1 50 км ясно -15.9 -22.4 57 -19 -18 1023.0 1021.2

 

Местоположение метеостанции Мыс Братьев (Магаданская область, Россия): широта 59.10 долгота 153.30 высота над уровнем моря 13 м.

В архиве по умолчанию представлена погода на Мысе Братьев за последнюю неделю. Архивные данные за месяц целиком и за предыдущие месяцы, начиная с января 2011 года, Вы можете получить, выбрав интересующий диапазон дат из раскрывающегося списка и нажав кнопку "Ввод!".

Внимание! Время в таблицах - всемирное. Для получения местного времени необходимо прибавить поправку, которая на Мысе Братьев равна 11 ч.

Ветер - указаны скорость ветра в м/с - средняя за 10 мин, порывы в срок и между сроками (в фигурных скобках) и направление, откуда дует ветер: С - северный, СВ - северо-восточный, В - восточный, ЮВ - юго-восточный, Ю - южный, ЮЗ - юго-западный, З - западный, СЗ - северо-западный.
Видимость - горизонтальная дальность видимости в метрах или километрах. При видимости от 1 до 10 км при отсутствии осадков обычно наблюдается дымка, при ухудшении видимости до 1 км и менее - туман. В сухую погоду видимость может ухудшаться дымом, пылью или мглою.
Явления - указаны атмосферные явления, наблюдавшиеся в срок или в последний час перед сроком; фигурными скобками обозначены явления, наблюдавшиеся между сроками (за 1-3 часа до срока); квадратными скобками обозначены град или гололедные отложения с указанием их диаметра в мм.
Облачность - указаны через наклонную черту общая и нижняя облачность в баллах и высота нижней границы облаков в метрах; квадратными скобками обозначены формы облаков: Ci - перистые, Cs - перисто-слоистые, Cc - перисто-кучевые, Ac - высококучевые, As - высокослоистые, Sc - слоисто-кучевые, Ns - слоисто-дождевые, Cu - кучевые, Cb - кучево-дождевые. Подробнее классификацию облаков см. в Атласе облаков (PDF).
T - Температура воздуха - температура, измеренная на высоте 2 м над землей.
Td - Температура точки росы - температура, при понижении до которой содержащийся в воздухе водяной пар достигнет насыщения.
f - Относительная влажность воздуха - влажноcть воздуха, измеренная на высоте 2 м над землей.
Te - Эффективная температура - температура, которую ощущает одетый по сезону человек в тени. Характеристика душности погоды. При расчете учитывается влияние влажности воздуха и скорости ветра на теплоощущения человека.
Tes - Эффективная температура на солнце - температура, которую ощущает человек, с поправкой на солнечный нагрев. Характеристика знойности погоды. Зависит от высоты солнца над горизонтом, облачности и скорости ветра. Ночью, в пасмурную погоду, а также при ветре 12 м/с и более поправка равна нулю.
P - Атмосферное давление - приведенное к уровню моря атмосферное давление.
Po - Атмосферное давление - измеренное на уровне метеостанции атмосферное давление.
Tmin - Минимальная температура - минимум температуры воздуха на высоте 2 м над землей.
Tmax - Максимальная температура - максимум температуры воздуха на высоте 2 м над землей.
R - Количество осадков - Количество выпавших осадков, мм. При наведении курсора мыши на число - период времени, за который выпало указанное количество осадков.
S - Снежный покров - Высота снежного покрова, см. При наведении курсора мыши на число - состояние снежного покрова и степень покрытия местности в баллах.